Погода в Орельке

Украина / Днепропетровская область     48°56′34″N   35°41′19″E
темп.,
°C
ветер,
м/с
пор.,
м/с
влажн.,
%
обл.,
%
осадки,
мм/ч
давл.,
гПа
погр.,
м
26 июля, пн
пн2600:00+21всв495365 0.0 1020192
03:00+18всв486013 0.0 1020129
06:00+17всв48685 0.0 1021130
09:00+24всв46521 0.0 1021404
12:00+28в44390 0.0 10211541
15:00+30в333436 0.0 10202845
18:00+29вюв23371 0.0 10192285
21:00+23в12471 0.0 102011
27 июля, вт
вт2700:00+21в48555 0.0 1020144
03:00+20в47533 0.0 1020117
06:00+18всв37614 0.0 1021115
09:00+25в46440 0.0 1020388
12:00+30в44354 0.0 10201561
15:00+31вюв323150 0.0 10193112
18:00+29юв444066 0.0 1018345
21:00+23ююв33555 0.0 101927
28 июля, ср
ср2800:00+22ю34525 0.0 101965
03:00+20ююз22660 0.0 101919
06:00+19ю34755 0.0 101856
09:00+26ююз455693 0.0 1018441
12:00+30ююз554199 0.0 10171504
15:00+31юз5636100 0.0 10162655
18:00+25вюв335795 0.3 101543
21:00+21ююв512775 0.9 1014189
29 июля, чт
чт2900:00+20ююз4978100 0.2 1014156
03:00+20юз488485 0.2 1013149
06:00+19зюз36861 0.0 1014138
09:00+25зюз23655 0.0 1014545
12:00+29юз33537 0.0 10131362
15:00+31зюз334234 0.0 10122321
18:00+31зсз434026 0.0 10112148
21:00+25юз115363 0.0 101211
30 июля, пт
пт3000:00+25св115383 0.0 101211
03:00+22зюз116399 0.0 101211
06:00+22юз116613 0.0 101111
09:00+28ююз33535 0.0 1012486
12:00+31юз444560 0.0 10111602
15:00+33ююз553968 0.0 10102385
18:00+32ююз554189 0.0 10102054
21:00+24ююз33661 0.6 101041